Regional Weather Roundup
Issued by NWS

Home | Current Version | Previous Version | Text Only | Print | Product List | Glossary Off
Versions: 1 2 3 4 5 6 7 8 9 10 11 12 13 14 15 16 17 18 19 20 21 22 23 24 25 26 27 28 29 30 31 32 33 34 35 36 37 38 39 40 41 42 43 44 45 46 47 48 49 50

000
ASUS45 KBOI 241510
RWRID
WEATHER ROUNDUP FOR IDAHO
NATIONAL WEATHER SERVICE BOISE ID
900 AM MDT THU JUL 24 2014

NOTE: "FAIR" INDICATES FEW OR NO CLOUDS BELOW 12000 FEET
WITH NO SIGNIFICANT WEATHER AND/OR OBSTRUCTIONS TO VISIBILITY

IDZ012-014-241600-
SOUTHWEST IDAHO


CITY           SKY/WX    TMP DP  RH WIND       PRES   REMARKS
BOISE          SUNNY     61  42  49 NW16G23   30.20R
CALDWELL       SUNNY     61  39  44 NW10      30.24R
MOUNTAIN HOME  SUNNY     65  41  42 NW26      30.17R
$$

IDZ016-017-241600-
SOUTHCENTRAL IDAHO


CITY           SKY/WX    TMP DP  RH WIND       PRES   REMARKS
BURLEY         SUNNY     65  43  44 SW16G29   30.16R
JEROME         SUNNY     63  45  51 SW17      30.17R
TWIN FALLS     SUNNY     66  40  38 SW20G26   30.18R
$$

IDZ019>023-241600-
SOUTHEAST IDAHO


CITY           SKY/WX    TMP DP  RH WIND       PRES   REMARKS
IDAHO FALLS    SUNNY     68  43  40 S25       30.11R
POCATELLO      SUNNY     68  44  42 SW23G29   30.13R
REXBURG        SUNNY     68  39  34 S17G26    30.09R
$$

IDZ006-010-011-018-031-032-241600-
CENTRAL IDAHO MOUNTAINS


CITY           SKY/WX    TMP DP  RH WIND       PRES   REMARKS
MCCALL         PTSUNNY   52  41  66 W7G16     30.17R
HAILEY         SUNNY     61  45  55 SE7       30.16R
STANLEY          N/A     55  39  54 VRB3      30.23R
SALMON         SUNNY     64  48  55 SW6       30.01R
CHALLIS        SUNNY     70  31  23 W14       30.08R
$$

IDZ002-004-006-007-026-241600-
NORTHERN IDAHO


CITY           SKY/WX    TMP DP  RH WIND       PRES   REMARKS
LEWISTON       SUNNY     62  41  46 SE5       30.16R
LOWELL           N/A     57  50  77 CALM      30.21R
COEUR D`ALENE  CLOUDY    54  45  71 N3        30.15R
MULLAN PASS    CLOUDY    38  35  89 VRB6      30.16R WCI  33
$$


USA.gov is the U.S. government's official web portal to all federal, state and local government web resources and services.